Regional Weather Roundup
Issued by NWS Cleveland, OH

Home | Current Version | Previous Version | Text Only | Print | Product List | Glossary Off
Versions: 1 2 3 4 5 6 7 8 9 10 11 12 13 14 15 16 17 18 19 20 21 22 23 24 25 26 27 28 29 30 31 32 33 34 35 36 37 38 39 40 41 42 43 44 45 46 47 48 49 50

000
ASUS41 KCLE 021010
RWRCLE
OHIO REGIONAL WEATHER ROUNDUP
NATIONAL WEATHER SERVICE WILMINGTON, OH
600 AM EDT THU OCT 02 2014

NOTE: "FAIR" INDICATES FEW OR NO CLOUDS BELOW 12,000 FEET WITH NO
SIGNIFICANT WEATHER AND/OR OBSTRUCTIONS TO VISIBILITY.

OHZ001>008-015>018-024>027-034-035-043-044-021100-
   NORTHWEST OHIO

CITY           SKY/WX    TMP DP  RH WIND       PRES   REMARKS
DEFIANCE       CLEAR     51  48  89 E5        30.00S
FINDLAY        PTCLDY    53  50  89 SE8       30.02R FOG
TOLEDO EXPRESS CLEAR     49  48  97 E3        30.01S FOG
TOLEDO METCALF CLEAR     49  47  93 SE5       30.03S FOG
LIMA           MOCLDY    57  51  80 SE9       30.01S
$$

OHZ009>014-019>023-028>033-038-089-021100-
   NORTHEAST OHIO

CITY           SKY/WX    TMP DP  RH WIND       PRES   REMARKS
CLE-HOPKINS    PTCLDY    50  48  93 CALM      30.07S FOG
CLE-LAKEFRONT  PTCLDY    55  52  89 SE9       30.04S
CUY CO. ARPT   NOT AVBL
LORAIN-ELYRIA  FOG       51  48  89 SE3       30.05F VSB 1/4
ASHTABULA      FOG       49  49 100 CALM      30.07S VSB 1/4
AKRON-CANTON   FOG       51  48  89 SE5       30.06S VSB 1/4
WOOSTER        FOG       45  43  93 CALM      30.07R VSB 1/4
MANSFIELD      CLEAR     48  47  96 CALM      30.05F
YOUNGSTOWN     FOG       49  48  97 E8        30.07R VSB 1/4
$$

OHZ042-051>053-060>062-070>072-077>081-021100-
  SOUTHWEST OHIO

CITY           SKY/WX    TMP DP  RH WIND       PRES   REMARKS
CINC-COVINGTON PTCLDY    59  54  83 SE6       30.01R
CINC-LUNKEN    PTCLDY    54  53  97 CALM      30.02S
HAMILTON       CLEAR     51  50  96 CALM      30.02S
DAYTON         PTCLDY    57  49  74 SE7       30.02S
WRIGHT-PAT AFB MOCLDY    53  50  90 NE5       30.02S
DAYTON GENERAL CLEAR     59  54  83 VRB3      30.01S
WILMINGTON     PTCLDY    55  48  77 E3        30.03S
$$

OHZ036-037-039>041-045>050-054>059-063>069-073>076-082>088-021100-
  CENTRAL AND SOUTHEAST OHIO

CITY           SKY/WX    TMP DP  RH WIND       PRES   REMARKS
COLUMBUS       CLEAR     50  48  93 CALM      30.05R
OSU AIRPORT    PTCLDY    49  47  93 E3        30.05S
BOLTON FIELD   FOG       47  47 100 CALM      30.05S VSB 3/4
RICKENBACK AFB MOCLDY    48  47  97 E3        30.04S FOG
NEWARK         FOG       44  43  96 CALM      30.06S VSB 1/4
MARION         CLEAR     48  47  96 S3        30.04F FOG
LANCASTER      PTCLDY    46  44  93 CALM      30.06S FOG
ZANESVILLE     FOG       46  44  93 CALM      30.07R VSB 1/4
NEW PHILLY     FOG       50  50 100 E3        30.08R VSB 1/4
$$


USA.gov is the U.S. government's official web portal to all federal, state and local government web resources and services.